Flag for Germany Weather past 2 weeks in Schwedt/Oder, Brandenburg, Germany

Now
84 °F

Passing clouds.


Feels Like: 87 °F
Forecast: 66 / 90 °F
Wind: 6 mph from North

Location: Szczecin Airport

Current Time: Jul 28, 2014 at 1:32:15 PM

Latest Report: Jul 28, 2014 at 1:00 PM


Visibility: N/A

Pressure: 29.89 "Hg

Humidity: 55%

Dew point: 66 °F

Location of Schwedt/OderLocation

Historic Weather in Schwedt/Oder — Graph

°F

Schwedt/Oder temperature yesterday

Maximum temperature yesterday: 88 °F (at 3:30 PM)
Minimum temperature yesterday: 63 °F (at 5:30 AM)
Average temperature yesterday: 74 °F

Past Weeks' High & Low Weather Summary

 TemperatureHumidityPressure
High88 °F (Jul 20, 4:00 PM)100% (Jul 14, 2:00 AM)30.18 "Hg (Jul 14, 2:00 AM)
Low55 °F (Jul 17, 5:30 AM)31% (Jul 21, 3:00 PM)29.71 "Hg (Jul 13, 1:00 PM)
Average70 °F69%30.00 "Hg
* Reported Jul 13 12:00 Noon — Jul 28 12:30 PM, Schwedt/Oder, Weather by CustomWeather, © 2014

Note: Actual official high and low records may vary slightly from our data, if they occured in-between our weather recording intervals... More about our weather records

Advertising

Schwedt/Oder weather history for previous 24 hours

 ConditionsComfort  
Time TempWeatherWind HumidityBarometerVisibility
12:30 PM
Jul 28
82 °FSunny.3 mph55%29.89 "Hg10 mi
12:00 PM82 °FPassing clouds.7 mph51%29.89 "HgN/A
11:30 AM81 °FPassing clouds.5 mph58%29.89 "HgN/A
11:00 AM81 °FPassing clouds.5 mph58%29.92 "HgN/A
10:30 AM79 °FPassing clouds.3 mph61%29.89 "HgN/A
10:00 AM77 °FSunny.No wind69%29.89 "Hg10 mi
9:30 AM77 °FSunny.2 mph74%29.92 "Hg10 mi
9:00 AM75 °FSunny.2 mph78%29.92 "Hg10 mi
8:30 AM73 °FSunny.No wind78%29.92 "Hg10 mi
8:00 AM70 °FClear.No wind88%29.92 "Hg5 mi
7:30 AM68 °FFog.No wind94%29.92 "Hg3 mi
7:00 AM66 °FFog.1 mph94%29.92 "Hg2 mi
6:30 AM66 °FFog.2 mph94%29.92 "Hg2 mi
6:00 AM64 °FFog.2 mph100%29.92 "Hg2 mi
5:30 AM64 °FFog.1 mph100%29.89 "Hg1 mi
4:30 AM64 °FFog.3 mph100%29.89 "Hg1 mi
4:00 AM64 °FFog.5 mph94%29.89 "Hg1 mi
3:30 AM64 °FFog.2 mph94%29.89 "Hg1 mi
3:00 AM64 °FFog.No wind100%29.92 "Hg1 mi
2:30 AM64 °FFog.2 mph100%29.92 "Hg1 mi
2:00 AM66 °FFog.No wind94%29.92 "Hg1 mi
1:30 AM66 °FFog.No wind100%29.92 "Hg1 mi
1:00 AM66 °FFog.No wind94%29.92 "Hg1 mi
12:30 AM66 °FLight fog.No wind94%29.92 "Hg1 mi
12:00 AM66 °FFog.No wind100%29.92 "Hg1 mi
11:30 PM
Jul 27
66 °FFog.No wind100%29.92 "Hg1 mi
11:00 PM68 °FFog.No wind94%29.92 "Hg1 mi
10:30 PM68 °FFog.2 mph94%29.92 "Hg2 mi
10:00 PM70 °FClear.3 mph94%29.92 "Hg4 mi
9:30 PM70 °FClear.5 mph94%29.92 "Hg4 mi
9:00 PM70 °FPassing clouds.5 mph94%29.92 "HgN/A
8:30 PM70 °FPassing clouds.3 mph94%29.92 "Hg4 mi
8:00 PM70 °FSprinkles. Scattered clouds.No wind94%29.92 "Hg4 mi
7:30 PM72 °FSprinkles. Scattered clouds.7 mph83%29.89 "HgN/A
7:00 PM72 °FSprinkles. Scattered clouds.8 mph88%29.92 "HgN/A
6:30 PM73 °FThunderstorms. Scattered clouds.7 mph74%29.89 "Hg5 mi
6:00 PM79 °FThunderstorms. Scattered clouds.9 mph65%29.89 "HgN/A
5:30 PM81 °FSprinkles. Scattered clouds.9 mph70%29.89 "HgN/A
5:00 PM86 °FScattered clouds.No wind49%29.89 "HgN/A
4:30 PM86 °FScattered clouds.3 mph46%29.89 "HgN/A
4:00 PM86 °FScattered clouds.2 mph40%29.92 "HgN/A
3:30 PM88 °FScattered clouds.No wind38%29.92 "HgN/A
3:00 PM86 °FScattered clouds.3 mph43%29.92 "HgN/A
2:30 PM86 °FScattered clouds.5 mph46%29.92 "HgN/A
2:00 PM86 °FScattered clouds.5 mph43%29.92 "HgN/A
1:30 PM86 °FScattered clouds.2 mph43%29.92 "HgN/A
1:00 PM84 °FScattered clouds.No wind51%29.92 "HgN/A
Weather by CustomWeather, © 2014

See weather overviewHow to use our weather pages